Regional Weather Roundup
Issued by NWS

Home | Current Version | Previous Version | Graphics & Text | Print | Product List | Glossary On
Versions: 1 2 3 4 5 6 7 8 9 10 11 12 13 14 15 16 17 18 19 20 21 22 23 24 25 26 27 28 29 30 31 32 33 34 35 36 37 38 39 40 41 42 43 44 45 46 47 48 49 50
877
ASUS45 KCYS 191010
RWRWY

WYOMING REGIONAL WEATHER ROUNDUP
NATIONAL WEATHER SERVICE CHEYENNE WY
400 AM MDT TUE SEP 19 2017

NOTE:  "FAIR" INDICATES FEW OR NO CLOUDS BELOW 12,000 FEET
WITH NO SIGNIFICANT WEATHER AND/OR OBSTRUCTIONS TO VISIBILITY.

WYZ001-191100-
YELLOWSTONE NATIONAL PARK

CITY           SKY/WX    TMP DP  RH WIND       PRES   REMARKS
LK YELLOWSTONE   N/A     34  34 100 VRB5      29.74F WCI  30
W YELLOWSTONE  NOT AVBL

$$
WYZ002>013-054>058-071-098>099-191100-
NORTHERN WYOMING

CITY           SKY/WX    TMP DP  RH WIND       PRES   REMARKS
JACKSON        CLOUDY    42  40  92 S12       29.76S
CODY           FAIR      48  39  71 NW6       29.64S
GREYBULL       MOCLDY    54  50  86 VRB3      29.58F
WORLAND        CLOUDY    51  50  96 SE15      29.61F
SHERIDAN       CLOUDY    62  39  42 SW10      29.57F
BUFFALO        MOCLDY    54  39  57 E3        29.62F
GILLETTE       FAIR      56  40  55 NW7       29.61R
HULETT         FAIR      64  36  34 W15G28    29.61R
NEWCASTLE      FAIR      63  34  34 SE18G26   29.62F

$$
WYZ014>020-022>026-101>103-191100-
CENTRAL WYOMING

CITY           SKY/WX    TMP DP  RH WIND       PRES   REMARKS
BIG PINEY      LGT RAIN  43  42  97 SE5       29.80F
PINEDALE       LGT RAIN  41  41 100 SE3       29.82R
DUBOIS         PTSUNNY   37  34  87 NW8       29.74R WCI  31
LANDER           N/A    N/A N/A N/A MISG      29.70F
RIVERTON       LGT RAIN  48  46  93 E5        29.71R
CASPER         FAIR      57  35  43 W14       29.65F
DOUGLAS        FAIR      60  32  34 S8        29.64F

$$
WYZ021-027>030-104>119-191100-
SOUTHERN WYOMING

CITY           SKY/WX    TMP DP  RH WIND       PRES   REMARKS
EVANSTON       LGT RAIN  45  44  97 SW13      29.86R
KEMMERER       LGT RAIN  43  41  93 W13G20    29.84R
FORT BRIDGER   CLOUDY    47  45  94 W12G17    29.87R
ROCK SPRINGS   MOCLDY    49  38  65 W13       29.82R
DIXON          FAIR      63  19  17 S18G25    29.84S
RAWLINS        FAIR      62  20  19 SW29G45   29.75F
SARATOGA       FAIR      63  19  19 SW21G35   29.79S
LARAMIE        FAIR      50  19  29 SE10      29.82F
CHEYENNE       FAIR      48  31  51 SW8       29.78F
TORRINGTON     FAIR      56  44  64 SE9       29.67F
PINE BLUFFS    FAIR      46  37  71 SW5       29.76F

$$




USA.gov is the U.S. government's official web portal to all federal, state and local government web resources and services.